• In Hungary
  • List of Countries
  • For 7 days
  • Water Temperature
  • Satellite Maps
  • Weather Map
  • News
  • Weather Widgets
  • user-avatar
    Login

    Hourly Weather Bekescsaba

    Today, 27 June, Tuesday

    Time Temperature Precipitation Wind Pressure Humidity
    00:00 +20°C° 0 mm 1 mps 752 mmHg 76%
    01:00 +20°C° 0 mm 1 mps 752 mmHg 81%
    02:00 +19°C° 0 mm 1 mps 752 mmHg 82%
    03:00 +19°C° 0 mm 1 mps 752 mmHg 83%
    04:00 +19°C° 0 mm 1 mps 752 mmHg 84%
    05:00 +21°C° 0 mm 1 mps 752 mmHg 76%
    06:00 +23°C° 0 mm 1 mps 752 mmHg 68%
    07:00 +26°C° 0 mm 1 mps 752 mmHg 61%
    08:00 +27°C° 0 mm 1 mps 752 mmHg 56%
    09:00 +29°C° 0 mm 1 mps 752 mmHg 50%
    10:00 +29°C° 0 mm 0 mps 752 mmHg 45%
    11:00 +31°C° 0 mm 1 mps 752 mmHg 43%
    12:00 +32°C° 0 mm 1 mps 751 mmHg 40%
    13:00 +32°C° 0 mm 1 mps 751 mmHg 38%
    14:00 +32°C° 0 mm 2 mps 751 mmHg 38%
    15:00 +34°C° 0 mm 2 mps 750 mmHg 39%
    16:00 +34°C° 0 mm 2 mps 750 mmHg 40%
    17:00 +31°C° 0 mm 2 mps 750 mmHg 47%
    18:00 +29°C° 0 mm 2 mps 750 mmHg 54%
    19:00 +27°C° 0 mm 2 mps 749 mmHg 61%
    20:00 +26°C° 0 mm 2 mps 749 mmHg 64%
    21:00 +25°C° 0 mm 2 mps 750 mmHg 67%
    22:00 +24°C° 0 mm 3 mps 750 mmHg 70%
    23:00 +24°C° 0 mm 3 mps 750 mmHg 70%

    Tomorrow, 28 June, Wednesday

    Time Temperature Precipitation Wind Pressure Humidity
    00:00 +22°C° 0 mm 3 mps 749 mmHg 70%
    01:00 +22°C° 0 mm 3 mps 749 mmHg 70%
    02:00 +21°C° 0 mm 3 mps 749 mmHg 71%
    03:00 +21°C° 0 mm 3 mps 749 mmHg 71%
    04:00 +21°C° 0 mm 3 mps 749 mmHg 71%
    05:00 +22°C° 0 mm 3 mps 749 mmHg 67%
    06:00 +25°C° 0 mm 4 mps 749 mmHg 64%
    07:00 +27°C° 0 mm 4 mps 749 mmHg 60%
    08:00 +29°C° 0 mm 4 mps 749 mmHg 55%
    09:00 +32°C° 0 mm 5 mps 749 mmHg 50%
    10:00 +33°C° 0 mm 5 mps 749 mmHg 45%
    11:00 +34°C° 0 mm 5 mps 748 mmHg 43%
    12:00 +35°C° 0 mm 6 mps 748 mmHg 40%
    13:00 +38°C° 0 mm 6 mps 747 mmHg 38%
    14:00 +38°C° 0 mm 6 mps 747 mmHg 37%
    15:00 +38°C° 0 mm 6 mps 746 mmHg 36%
    16:00 +38°C° 0 mm 6 mps 746 mmHg 36%
    17:00 +35°C° 0 mm 5 mps 745 mmHg 42%
    18:00 +33°C° 0 mm 4 mps 745 mmHg 48%
    19:00 +30°C° 0 mm 3 mps 745 mmHg 55%
    20:00 +30°C° 0 mm 4 mps 745 mmHg 53%
    21:00 +29°C° 0 mm 4 mps 745 mmHg 52%
    22:00 +28°C° 0 mm 5 mps 745 mmHg 51%
    23:00 +28°C° 0.2 mm 5 mps 745 mmHg 54%

    Day after tomorrow, 29 June, Thursday

    Time Temperature Precipitation Wind Pressure Humidity
    00:00 +27°C° 0.2 mm 4 mps 745 mmHg 57%
    01:00 +26°C° 0.2 mm 4 mps 745 mmHg 60%
    02:00 +26°C° 0 mm 5 mps 745 mmHg 60%
    03:00 +26°C° 0 mm 5 mps 745 mmHg 60%
    04:00 +26°C° 0 mm 6 mps 745 mmHg 59%
    05:00 +27°C° 0 mm 7 mps 745 mmHg 57%
    06:00 +27°C° 0 mm 8 mps 745 mmHg 55%
    07:00 +28°C° 0 mm 9 mps 746 mmHg 53%
    08:00 +31°C° 0 mm 9 mps 746 mmHg 48%
    09:00 +32°C° 0 mm 9 mps 745 mmHg 43%
    10:00 +34°C° 0 mm 9 mps 745 mmHg 38%
    11:00 +34°C° 0 mm 9 mps 745 mmHg 38%
    12:00 +34°C° 0 mm 8 mps 745 mmHg 38%
    13:00 +34°C° 0 mm 7 mps 745 mmHg 38%
    14:00 +34°C° 0 mm 7 mps 745 mmHg 35%
    15:00 +35°C° 0 mm 7 mps 745 mmHg 33%
    16:00 +35°C° 0 mm 8 mps 745 mmHg 31%
    17:00 +33°C° 0 mm 6 mps 745 mmHg 36%
    18:00 +30°C° 0 mm 5 mps 745 mmHg 41%
    19:00 +29°C° 0 mm 4 mps 746 mmHg 46%
    20:00 +27°C° 0 mm 4 mps 746 mmHg 48%
    21:00 +26°C° 0 mm 3 mps 747 mmHg 51%
    22:00 +25°C° 0 mm 3 mps 747 mmHg 53%
    23:00 +24°C° 0 mm 3 mps 747 mmHg 54%

    30 June, Friday

    Time Temperature Precipitation Wind Pressure Humidity
    00:00 +24°C° 0 mm 3 mps 748 mmHg 56%
    01:00 +22°C° 0 mm 3 mps 748 mmHg 57%
    02:00 +22°C° 0 mm 3 mps 749 mmHg 59%
    03:00 +21°C° 0 mm 3 mps 749 mmHg 62%
    04:00 +21°C° 0 mm 3 mps 749 mmHg 64%
    05:00 +22°C° 0 mm 4 mps 750 mmHg 60%
    06:00 +25°C° 0 mm 4 mps 750 mmHg 57%
    07:00 +26°C° 0 mm 4 mps 750 mmHg 53%
    08:00 +28°C° 0 mm 5 mps 751 mmHg 48%
    09:00 +29°C° 0 mm 5 mps 751 mmHg 43%
    10:00 +32°C° 0 mm 6 mps 751 mmHg 37%
    11:00 +32°C° 0 mm 6 mps 751 mmHg 35%
    12:00 +33°C° 0 mm 6 mps 751 mmHg 34%
    13:00 +34°C° 0 mm 7 mps 751 mmHg 32%
    14:00 +34°C° 0 mm 6 mps 750 mmHg 33%
    15:00 +34°C° 0 mm 5 mps 750 mmHg 35%
    16:00 +34°C° 0 mm 5 mps 750 mmHg 36%
    17:00 +31°C° 0 mm 3 mps 750 mmHg 44%
    18:00 +29°C° 0 mm 2 mps 750 mmHg 51%
    19:00 +28°C° 0 mm 1 mps 750 mmHg 59%
    20:00 +26°C° 0 mm 1 mps 750 mmHg 60%
    21:00 +25°C° 0 mm 1 mps 750 mmHg 61%
    22:00 +24°C° 0 mm 2 mps 750 mmHg 62%
    23:00 +24°C° 0 mm 2 mps 750 mmHg 63%

    1 July, Saturday

    Time Temperature Precipitation Wind Pressure Humidity
    00:00 +23°C° 0 mm 2 mps 750 mmHg 63%
    01:00 +23°C° 0 mm 2 mps 750 mmHg 64%
    02:00 +23°C° 0 mm 2 mps 750 mmHg 63%
    03:00 +21°C° 0 mm 2 mps 750 mmHg 63%
    04:00 +21°C° 0 mm 3 mps 750 mmHg 63%
    05:00 +22°C° 0.1 mm 3 mps 750 mmHg 62%
    06:00 +22°C° 0.1 mm 3 mps 751 mmHg 61%
    07:00 +24°C° 0.1 mm 3 mps 751 mmHg 61%
    08:00 +24°C° 0.2 mm 3 mps 751 mmHg 60%
    09:00 +25°C° 0.2 mm 3 mps 751 mmHg 59%
    10:00 +26°C° 0.2 mm 3 mps 751 mmHg 58%
    11:00 +27°C° 0.3 mm 3 mps 751 mmHg 59%
    12:00 +27°C° 0.3 mm 3 mps 751 mmHg 59%
    13:00 +27°C° 0.3 mm 4 mps 751 mmHg 60%
    14:00 +27°C° 0 mm 4 mps 751 mmHg 61%
    15:00 +27°C° 0 mm 3 mps 750 mmHg 61%
    16:00 +26°C° 0 mm 3 mps 750 mmHg 62%
    17:00 +25°C° 0 mm 3 mps 750 mmHg 66%
    18:00 +24°C° 0 mm 2 mps 750 mmHg 69%
    19:00 +24°C° 0 mm 2 mps 750 mmHg 72%
    20:00 +22°C° 0 mm 1 mps 751 mmHg 76%
    21:00 +21°C° 0 mm 1 mps 751 mmHg 79%
    22:00 +20°C° 0 mm 1 mps 751 mmHg 82%
    23:00 +19°C° 0 mm 1 mps 751 mmHg 83%

    2 July, Sunday

    Time Temperature Precipitation Wind Pressure Humidity
    00:00 +18°C° 0 mm 2 mps 751 mmHg 83%
    01:00 +18°C° 0 mm 2 mps 751 mmHg 84%
    02:00 +17°C° 0 mm 2 mps 751 mmHg 83%
    03:00 +17°C° 0 mm 2 mps 751 mmHg 82%
    04:00 +17°C° 0 mm 2 mps 751 mmHg 81%
    05:00 +19°C° 0 mm 3 mps 752 mmHg 73%
    06:00 +20°C° 0 mm 3 mps 752 mmHg 65%
    07:00 +22°C° 0 mm 4 mps 752 mmHg 58%
    08:00 +25°C° 0 mm 4 mps 752 mmHg 52%
    09:00 +26°C° 0 mm 4 mps 752 mmHg 47%
    10:00 +27°C° 0 mm 4 mps 752 mmHg 42%
    11:00 +28°C° 0 mm 4 mps 752 mmHg 40%
    12:00 +29°C° 0 mm 5 mps 752 mmHg 38%
    13:00 +29°C° 0 mm 5 mps 751 mmHg 36%
    14:00 +29°C° 0 mm 5 mps 751 mmHg 38%
    15:00 +29°C° 0 mm 5 mps 751 mmHg 39%
    16:00 +28°C° 0 mm 5 mps 751 mmHg 40%
    17:00 +27°C° 0 mm 5 mps 751 mmHg 47%
    18:00 +25°C° 0 mm 4 mps 751 mmHg 53%
    19:00 +22°C° 0 mm 4 mps 751 mmHg 59%
    20:00 +21°C° 0 mm 3 mps 751 mmHg 63%
    21:00 +19°C° 0 mm 3 mps 751 mmHg 67%
    22:00 +18°C° 0 mm 3 mps 751 mmHg 71%
    23:00 +17°C° 0 mm 3 mps 751 mmHg 73%
    Show more